Regional Weather Roundup
Issued by NWS

Home | Current Version | Previous Version | Text Only | Print | Product List | Glossary On
Versions: 1 2 3 4 5 6 7 8 9 10 11 12 13 14 15 16 17 18 19 20 21 22 23 24 25 26 27 28 29 30 31 32 33 34 35 36 37 38 39 40 41 42 43 44 45 46 47 48 49 50
000
ASUS43 KTOP 160259
RWRKS

WEATHER ROUNDUP FOR KANSAS
NATIONAL WEATHER SERVICE GOODLAND KS
1000 PM CDT MON SEP 15 2014

NOTE:  "FAIR" INDICATES FEW OR NO CLOUDS BELOW 12,000 FEET WITH NO
SIGNIFICANT WEATHER AND/OR OBSTRUCTIONS TO VISIBILITY.

KSZ001>006-013>018-027>032-041>047-160400-
NORTHWEST KANSAS

CITY           SKY/WX    TMP DP  RH WIND       PRES   REMARKS
GOODLAND       CLEAR     53  50  89 S8        30.29R
HAYS           CLEAR     55  46  71 NE9       30.25R
HILL CITY      CLEAR     51  44  77 NE3       30.26R
RUSSELL        CLEAR     55  48  77 NE7       30.24R
$$

KSZ061>065-074>080-084>089-160400-
SOUTHWEST KANSAS

CITY           SKY/WX    TMP DP  RH WIND       PRES   REMARKS
DODGE CITY     CLOUDY    63  54  72 E6        30.25R
ELKHART          N/A     59  55  87 NE5         N/A
GARDEN CITY    CLOUDY    61  55  81 CALM      30.26R
GREAT BEND     CLEAR     59  52  77 NE7       30.24R
LIBERAL        MOCLDY    63  54  72 NE5       30.28R
$$

KSZ066>073-081>083-090>101-160400-
SOUTHEAST KANSAS

CITY           SKY/WX    TMP DP  RH WIND       PRES   REMARKS
CHANUTE        CLOUDY    68  59  73 NE10      30.19R
COFFEYVILLE    CLOUDY    69  65  86 NE9       30.17R
HUTCHINSON     MOCLDY    60  56  86 CALM      30.22R
NEWTON         CLEAR     63  54  72 NE5       30.23R
PARSONS        CLOUDY    69  61  75 VRB5      30.19R
WICHITA INTL   MOCLDY    68  57  68 NE9       30.20R
WICHITA JABRA  MOCLDY    65  57  75 NE8       30.20R
WINFIELD       CLOUDY    69  60  73 NE12      30.19R
$$

KSZ007>012-019>026-033>040-048>060-102>105-160400-
NORTHEAST KANSAS

CITY           SKY/WX    TMP DP  RH WIND       PRES   REMARKS
CONCORDIA      CLEAR     54  47  77 NE3       30.25R
EMPORIA        MOCLDY    60  53  77 NE14      30.22R
LAWRENCE       CLEAR     55  49  80 NE3       30.24R
MANHATTAN      CLEAR     58  50  75 N6        30.24R
OLATHE IND     CLEAR     57  50  77 NE7       30.24R
OLATHE EXE     CLEAR     57  50  77 NE6       30.22R
SALINA         CLEAR     63  50  62 NE8       30.24R
TOPEKA BILLARD CLEAR     56  52  86 N3        30.24R
TOPEKA FORBES  CLEAR     57  51  80 NE3       30.23R
$$


USA.gov is the U.S. government's official web portal to all federal, state and local government web resources and services.